Hourly Data Report for September 24, 2018

TORONTO CITY
ONTARIO
Current Station Operator: ECCC - MSC

43°40'00.000" N
79°24'00.000" W
112.50 m
6158355
71508
XTO

Download Data

Hourly Data (September 2018)
Hourly Data Report for September 24, 2018
TIME
LST
Temp Definition
°C
Dew Point Definition
°C
Rel Hum Definition
%
Precip. Amount Definition
mm

Wind Dir Definition
10's deg

Wind Spd Definition
km/h
Visibility Definition
km
Stn Press Definition
kPa
Hmdx Definition


Wind Chill Definition


Weather Definition


00:00 14.1 9.8 76 0.0 LegendMM LegendMM   101.32     LegendNANA
01:00 13.5 9.9 79 0.0 LegendMM LegendMM   101.36     LegendNANA
02:00 12.8 9.3 79 0.0 LegendMM LegendMM   101.41     LegendNANA
03:00 13.1 9.2 77 0.0 LegendMM LegendMM   101.40     LegendNANA
04:00 13.1 9.1 77 0.0 LegendMM LegendMM   101.42     LegendNANA
05:00 12.8 9.4 80 0.0 LegendMM LegendMM   101.45     LegendNANA
06:00 12.1 8.5 79 0.0 LegendMM LegendMM   101.50     LegendNANA
07:00 11.5 7.9 79 0.0 LegendMM LegendMM   101.53     LegendNANA
08:00 12.6 9.2 80 0.0 LegendMM LegendMM   101.54     LegendNANA
09:00 13.5 9.6 77 0.0 LegendMM LegendMM   101.53     LegendNANA
10:00 14.2 10.5 78 0.0 LegendMM LegendMM   101.48     LegendNANA
11:00 15.1 11.0 76 0.0 LegendMM LegendMM   101.43     LegendNANA
12:00 16.3 11.2 72 0.0 LegendMM LegendMM   101.38     LegendNANA
13:00 16.4 11.4 73 0.0 LegendMM LegendMM   101.31     LegendNANA
14:00 16.9 11.7 71 0.0 LegendMM LegendMM   101.25     LegendNANA
15:00 17.1 12.0 72 0.0 LegendMM LegendMM   101.19     LegendNANA
16:00 17.0 12.3 74 0.0 LegendMM LegendMM   101.15     LegendNANA
17:00 17.3 12.8 75 0.0 LegendMM LegendMM   101.09     LegendNANA
18:00 17.9 13.8 77 0.0 LegendMM LegendMM   101.04     LegendNANA
19:00 19.3 14.6 75 0.0 LegendMM LegendMM   100.99     LegendNANA
20:00 19.7 13.6 68 0.0 LegendMM LegendMM   100.99     LegendNANA
21:00 19.3 14.0 71 0.0 LegendMM LegendMM   100.97     LegendNANA
22:00 19.3 12.8 66 0.0 LegendMM LegendMM   100.97     LegendNANA
23:00 17.6 13.2 75 0.0 LegendMM LegendMM   100.96     LegendNANA

Notes on Data Quality.

Legend

  • E = Estimated
  • M = Missing
  • NA = Not Available*
  • [empty] = Indicates an unobserved value
Date modified: